TITAN 3C TRANSTAGE DEB, 3462

Orbit data source: Space-Track

TITAN 3C TRANSTAGE DEB, 3462 is space debris in LEO originally from a launch on Fri, 15 Oct 1965 UTC launched from the Air Force Eastern Test Range (AFETR). Debris objects in space refer to the collection of defunct objects orbiting the Earth. Examples of debris include non-operational satellites, rocket bodies, and fragments generated from explosions, collisions, or faulty payload assembly.

Loading next visibility...
Identifier
3462, 1965-082PT
Orbit
LEO
Country
Flag of USUS
Related business
Manufacturer
Unknown
Mission
Spacecraft
Bus & Motor
Unknown
Mass
Unknown
Launch date (UTC)
1965-10-15 (61 years ago)
Launch vehicle
Unknown
Launch site
Air Force Eastern Test Range (AFETR)
Object type
Payload
Rocket body
Debris
Shape & HBR
Unknown shape, 0.1 m
Radar Cross Section
Small (<0.1 m²)

Expand to show TLE details & history
Last TLE update: 20 hours ago

TLE from 20 hours ago
0 TITAN 3C TRANSTAGE DEB
1 03462U 65082PT  26107.00085395  .00006078  00000-0  20225-3 0  9997
2 03462  32.0348   2.3951 0010614 203.1746 156.8439 15.29746460254137
Epoch: 2026-04-17T00:01Z
TLE epoch observation values (Epoch: 2026-04-17T00:01:13.781Z)
Latitude
-0.00001°
Longitude
156.94735°
Altitude
481.858 km
Speed
7.623 km/s
True Right ascension
00h 09m 34s
True Declination
0° 00' 00"
Sunlit
Object was in daylight at epoch
Visualization orbit readout
Latitude
Unknown
Longitude
Unknown
Altitude
Unknown
Speed
Unknown
Apparent Right ascension
Unknown
Apparent Declination
Unknown
Sunlit
N/A
Visualization observer readout
Local Sidereal Time
02:16:12
Azimuth
Unknown
Elevation
Unknown
Doppler factor
Unknown
Orbital elements
Apogee altitude
487.568 km
Perigee altitude
473.009 km
Semi-major axis
6,858.426 km
Eccentricity
0.00106
Inclination
32.0348°
RAAN
2.3951°
Arg. of periapsis
203.1746°
True anomaly
156.89167°
Mean anomaly
156.8439°
Eccentric anomaly
156.86779°
Mean motion
3.82126 °/min
Orbital period
94.21 mins
BSTAR
0.00020225

Documentation

Showing up to 5 results
|